2022-118C (53942 NORAD) Tracking and Keplerian Element Data

This shows tracking and keplerian element data for the satellite.

Feedback or suggestion? Click here.




ElementValue
Catalog53942
Name2022-118C
Epoch Orbit427
Epoch Day295.97486825
Epoch Year2022
RAAN302.6863
Inclination97.5249
Eccentricity0.0266696
Argument of Perigee265.7622
Mean Anonmoly91.3115
Mean Motion15.28286493
Decay Rate0.00027688
L11 53942U 22118C 22295.97486825 .00027688 23508-5 34091-3 0 9990
L22 53942 97.5249 302.6863 0266696 265.7622 91.3115 15.28286493 4275



Live tracking and technical data element details for 2022-118C (NORAD 53942). 2022-118C can be tracked NOW for your location showing map with azimuth and elevation plus other details from your city location.







IsCatalogInMostPopularTable: catalog: 53942, numindb: 1
Update: records affected: 1



GetName: 53942 2022-118C

Hit Count: updated at: Thu, 08 Dec 2022 09:48:40 GMT